WS Maaseik 1 Meer informatie WS Maaseik 1


WS Maaseik 2 Meer informatie WS Maaseik 2


Regen radar Meer informatie rain snow radar


Bezoek onze andere website:

Vorige versie
weerstation Maaseik


Bezoek ook eens deze sites:

Weerstation Geleen



We konden geen weer-waarchuwingen ophalen. Ga rechtstreeks naar de Meteoalarm site : www.meteoalarm.eu en controleer daar .

15 daagse weersverwachting Frederiksberg (DK)

  • Overzicht
  • Per uur
  • 15 dagen
  • Extra
  • Vergelijk
  • Kaarten
  • Dagkaart
  • Meer »
  • Info
  • Statistieken
  • Directe link
    Temp 6h Neerslag Wind  
 04:35     21:55    Daglengte: 17:20 Vandaag
08:00
19°
 
5
14:00
23°
 
7
20:00
21°
 
3
 04:36     21:54    Daglengte: 17:18 Morgen
02:00
16°
 
2
08:00
17°
 
4
14:00
21°
 
5
20:00
19°
 
5
 04:37     21:54    Daglengte: 17:17 Dinsdag 05 Jul
02:00
15°
 
5
08:00
16°
 
5
14:00
20°
 
6
20:00
18°
 
6
 04:38     21:53    Daglengte: 17:15 Woensdag 06 Jul
02:00
12°
 
3
Locatie info
Region: Hovedstaden
Latitude: 55.6789°N
Longitude: 12.5298°E
15 masl
Postcode: 2000
Temp/Neerslag /Baro Onweer/Dauwpunt
    Temp Baro 1h Neerslag Dauwpunt Wind UV Bewolking  
 04:35     21:55    Daglengte: 17:20 Vandaag
08:00
19°
1018.3 hPa   14.8°
5
Windvlaag: 9.3 m/s
61%
09:00
20°
1018.0 hPa   14.6°
6
Windvlaag: 9.9 m/s
55%
10:00
20°
1017.9 hPa   14.3°
6
Windvlaag: 10 m/s
50%
11:00
21°
1017.8 hPa   13.8°
6
Windvlaag: 10.2 m/s
69%
12:00
22°
1017.7 hPa   12.8°
6
Windvlaag: 10.5 m/s
59%
13:00
23°
1017.2 hPa   12.3°
6
Windvlaag: 11.2 m/s
59%
14:00
23°
1016.9 hPa   13.8°
7
Windvlaag: 12 m/s
14%
15:00
24°
1016.3 hPa   13.9°
7
Windvlaag: 12.1 m/s
9%
16:00
24°
1016.1 hPa
16%
13.9°
7
Windvlaag: 11.7 m/s
27%
17:00
23°
1015.7 hPa
14%
14.2°
7
Windvlaag: 11.2 m/s
36%
18:00
22°
1015.6 hPa
22%
15.2°
6
Windvlaag: 11.5 m/s
29%
19:00
21°
1015.5 hPa
69%
14.9°
5
Windvlaag: 10.6 m/s
17%
20:00
21°
1015.3 hPa
22%
15.2°
3
Windvlaag: 10.3 m/s
22%
21:00
20°
1015.4 hPa
27%
15.4°
2
Windvlaag: 9 m/s
69%
22:00
19°
1015.3 hPa
77%
15.5°
2
Windvlaag: 4 m/s
14%
23:00
18°
1015.3 hPa
66%
16.1°
2
Windvlaag: 3.8 m/s
23%
 04:36     21:54    Daglengte: 17:18 Morgen
00:00
17°
1014.8 hPa
19%
16.1°
2
Windvlaag: 3.5 m/s
10%
01:00
17°
1014.9 hPa
25%
16.0°
1
Windvlaag: 4.6 m/s
79%
02:00
16°
1014.7 hPa
25%
15.3°
2
Windvlaag: 6.7 m/s
21%
03:00
16°
1014.8 hPa
81%
14.8°
2
Windvlaag: 1.7 m/s
14% warningclass
04:00
15°
1014.5 hPa
81%
14.4°
2
Windvlaag: 0.1 m/s
0%
05:00
15°
1014.5 hPa
17%
13.8°
3
Windvlaag: 1.1 m/s
7%
06:00
15°
1014.7 hPa
17%
14.2°
4
Windvlaag: 0.9 m/s
9%
07:00
16°
1015.0 hPa
21%
14.8°
3
Windvlaag: 1.1 m/s
9%
08:00
17°
1015.1 hPa
23%
14.2°
4
Windvlaag: 2.1 m/s
31%
09:00
18°
1015.2 hPa
30%
12.3°
4
Windvlaag: 1.9 m/s
30%
10:00
18°
1015.3 hPa
26%
10.6°
4
Windvlaag: 2 m/s
38%
11:00
19°
1015.5 hPa
16%
9.5°
4
Windvlaag: 2.3 m/s
16%
12:00
20°
1015.2 hPa
17%
8.9°
4
Windvlaag: 2.7 m/s
48%
13:00
21°
1015.1 hPa
25%
8.8°
4
Windvlaag: 3.9 m/s
70%
14:00
21°
1014.8 hPa
26%
9.7°
5
Windvlaag: 3.9 m/s
22%
15:00
21°
1014.9 hPa
77%
9.8°
6
Windvlaag: 7 m/s
17%
16:00
21°
1014.8 hPa
77%
10.6°
5
Windvlaag: 6.2 m/s
44%
17:00
21°
1014.4 hPa
71%
10.6°
6
Windvlaag: 5.4 m/s
41%
18:00
20°
1014.3 hPa
24%
10.2°
6
Windvlaag: 3.9 m/s
19%
19:00
20°
1014.2 hPa
26%
9.4°
5
Windvlaag: 3.4 m/s
18%
20:00
19°
1014.4 hPa
17%
8.8°
5
Windvlaag: 2.9 m/s
48%
21:00
19°
1014.7 hPa
20%
9.0°
5
Windvlaag: 2.8 m/s
12%
22:00
18°
1014.9 hPa
19%
9.5°
4
Windvlaag: 2.9 m/s
8%
23:00
17°
1015.1 hPa
14%
9.4°
4
Windvlaag: 1.6 m/s
9%
 04:37     21:54    Daglengte: 17:17 Dinsdag 05 Jul
00:00
16°
1015.3 hPa
14%
9.7°
4
Windvlaag: 3.1 m/s
13%
01:00
16°
1015.4 hPa
14%
9.9°
5
Windvlaag: 4.2 m/s
9%
02:00
15°
1015.4 hPa
18%
9.6°
5
Windvlaag: 4.3 m/s
4%
03:00
15°
1015.3 hPa
23%
9.7°
5
Windvlaag: 4 m/s
6%
04:00
14°
1015.3 hPa
15%
9.9°
4
Windvlaag: 4.1 m/s
10%
05:00
13°
1015.5 hPa
21%
10.2°
4
Windvlaag: 4.2 m/s
22%
06:00
13°
1015.8 hPa
21%
10.1°
4
Windvlaag: 5.8 m/s
27%
07:00
14°
1015.8 hPa
21%
10.1°
5
Windvlaag: 5.8 m/s
66%
08:00
16°
1015.8 hPa
27%
10.1°
5
Windvlaag: 5.6 m/s
32%
09:00
17°
1015.9 hPa
46%
9.9°
6
Windvlaag: 5.1 m/s
83%
10:00
18°
1015.9 hPa
52%
9.9°
6
Windvlaag: 4.5 m/s
67%
11:00
18°
1016.0 hPa
94%
8.2°
5
Windvlaag: 3.6 m/s
68%
12:00
19°
1016.1 hPa
52%
7.7°
5
Windvlaag: 3.6 m/s
53%
13:00
19°
1016.1 hPa
42%
8.4°
6
Windvlaag: 3.2 m/s
48%
14:00
20°
1016.0 hPa
32%
9.8°
6
Windvlaag: 4.7 m/s
40%
15:00
19°
1016.0 hPa
32%
9.7°
6
Windvlaag: 4.6 m/s
36%
16:00
20°
1015.9 hPa
34%
9.7°
5
Windvlaag: 3.5 m/s
34%
17:00
19°
1016.0 hPa
33%
10.9°
6
Windvlaag: 2.3 m/s
34%
18:00
19°
1016.0 hPa
31%
10.4°
5
Windvlaag: 2.3 m/s
41%
19:00
19°
1015.9 hPa
23%
8.9°
6
Windvlaag: 1.2 m/s
39%
20:00
18°
1016.0 hPa
24%
7.6°
6
Windvlaag: 0.9 m/s
26%
21:00
17°
1016.1 hPa
22%
9.7°
5
Windvlaag: 1.1 m/s
37%
22:00
16°
1016.4 hPa
30%
9.9°
5
Windvlaag: 0.4 m/s
42%
23:00
15°
1016.5 hPa
30%
9.3°
4
Windvlaag: 0.8 m/s
32%
 04:38     21:53    Daglengte: 17:15 Woensdag 06 Jul
00:00
13°
1016.5 hPa
23%
8.1°
3
Windvlaag: 9.3 m/s
12%
01:00
13°
1016.5 hPa
21%
8.0°
3
Windvlaag: 11.3 m/s
12%
02:00
12°
1016.5 hPa
21%
8.1°
3
Windvlaag: 10.3 m/s
17%
03:00
12°
1016.5 hPa
21%
7.8°
3
Windvlaag: 10.7 m/s
13%
04:00
12°
1016.6 hPa
21%
8.0°
3
Windvlaag: 8.9 m/s
19%
05:00
11°
1016.5 hPa
24%
8.6°
3
Windvlaag: 8.9 m/s
19%
06:00
12°
1016.5 hPa
29%
8.6°
3
Windvlaag: 10 m/s
15%
07:00
13°
1016.6 hPa
30%
8.5°
4
Windvlaag: 9.7 m/s
45%
Temp/Neerslag /Baro Onweer/Dauwpunt
    Temp Baro Neerslag Dauwpunt Wind Bewolking  
 04:35     21:55    Daglengte: 17:20 Vandaag
08:00
19°
1018.3 hPa   14.8°
5
61%
11:00
21°
1017.8 hPa   13.8°
6
69%
14:00
23°
1016.9 hPa   13.8°
7
14%
17:00
23°
1015.7 hPa   14.2°
7
36%
20:00
21°
1015.3 hPa   15.2°
3
22%
23:00
18°
1015.3 hPa   16.1°
2
23%
 04:36     21:54    Daglengte: 17:18 Morgen
02:00
16°
1014.7 hPa   15.3°
2
21%
05:00
15°
1014.5 hPa   13.8°
3
7%
08:00
17°
1015.1 hPa   14.2°
4
31%
11:00
19°
1015.5 hPa   9.5°
4
16%
14:00
21°
1014.8 hPa   9.7°
5
22%
17:00
21°
1014.4 hPa   10.6°
6
41%
20:00
19°
1014.4 hPa   8.8°
5
48%
23:00
17°
1015.1 hPa   9.4°
4
9%
 04:37     21:54    Daglengte: 17:17 Dinsdag 05 Jul
02:00
15°
1015.4 hPa   9.6°
5
4%
05:00
13°
1015.5 hPa   10.2°
4
22%
08:00
16°
1015.8 hPa   10.1°
5
32%
11:00
18°
1016.0 hPa   8.2°
5
68%
14:00
20°
1016.0 hPa   9.8°
6
40%
17:00
19°
1016.0 hPa   10.9°
6
34%
20:00
18°
1016.0 hPa   7.6°
6
26%
23:00
15°
1016.5 hPa   9.3°
4
32%
 04:38     21:53    Daglengte: 17:15 Woensdag 06 Jul
02:00
12°
1016.5 hPa   8.1°
3
17%
05:00
11°
1016.5 hPa   8.6°
3
19%
08:00
14°
1016.7 hPa   8.1°
5
18%
11:00
16°
1017.1 hPa 3.8 mm -10.7°
10
16%
14:00
17°
1017.1 hPa 3.9 mm -12.3°
9
12%
17:00
19°
1017.1 hPa 7.6 mm -12.8°
9
1%
20:00
17°
1017.0 hPa 7.6 mm -10.5°
9
7%
23:00
15°
1017.0 hPa 7.8 mm -9.2°
8
24%
 04:39     21:52    Daglengte: 17:13 Donderdag 07 Jul
02:00
14°
1015.9 hPa 4.2 mm -8.6°
6
16%
05:00
13°
1014.9 hPa 4.2 mm -11.3°
7
13%
08:00
14°
1015.0 hPa 8.4 mm -11.3°
8
12%
11:00
18°
1014.9 hPa 8.4 mm -11.6°
9
17%
14:00
19°
1014.3 hPa 8.4 mm -12.1°
8
9%
17:00
20°
1015.2 hPa 8.4 mm -11.7°
7
0%
20:00
19°
1015.9 hPa 8.4 mm -11.2°
5
0%
23:00
15°
1016.1 hPa 8.6 mm -7.4°
6
12%
 04:40     21:51    Daglengte: 17:11 Vrijdag 08 Jul
02:00
13°
1016.1 hPa 8.6 mm -8.9°
7
19%
05:00
14°
1015.9 hPa 8.6 mm -11.0°
8
24%
08:00
15°
1014.9 hPa 4.6 mm -7.4°
7
25%
11:00
16°
1014.0 hPa 4.9 mm -6.6°
8
22%
14:00
20°
1012.0 hPa 5.2 mm -11.3°
7
12%
17:00
18°
1011.0 hPa 5.5 mm -6.4°
7
15%
20:00
18°
1010.3 hPa 5.8 mm -6.7°
6
13%
23:00
15°
1009.8 hPa 5.8 mm -7.1°
7
11%
 04:41     21:50    Daglengte: 17:09 Zaterdag 09 Jul
02:00
15°
1009.0 hPa 5.8 mm -8.4°
8
22%
05:00
14°
1008.1 hPa 6.2 mm -7.3°
6
17%
08:00
16°
1009.5 hPa 12.9 mm 13.2°
5
1%
11:00
19°
1011.9 hPa 14.2 mm 9.7°
7
0%
14:00
21°
1014.0 hPa 14.3 mm 7.7°
6
0%
17:00
21°
1015.9 hPa 14.4 mm 8.5°
8
1%
20:00
19°
1017.5 hPa 14.4 mm 9.3°
6
0%
23:00
16°
1018.5 hPa 14.4 mm 9.6°
5
0%
 04:43     21:49    Daglengte: 17:06 Zondag 10 Jul
02:00
16°
1018.9 hPa 14.5 mm 9.5°
4
0%
05:00
15°
1019.6 hPa   8.6°
3
1%
08:00
17°
1019.8 hPa 29.1 mm 10.0°
5
0%
14:00
18°
1019.8 hPa 29.3 mm 8.0°
5
1%
20:00
18°
1018.0 hPa 30.0 mm 11.4°
5
1%
 04:44     21:48    Daglengte: 17:04 Maandag 11 Jul
02:00
15°
1017.1 hPa 33.3 mm 13.6°
5
1%
08:00
15°
1016.5 hPa 35.2 mm 13.2°
5
1%
14:00
20°
1016.8 hPa 36.4 mm 10.1°
5
1%
20:00
19°
1016.5 hPa 36.7 mm 10.6°
7
1%
 04:45     21:47    Daglengte: 17:02 Dinsdag 12 Jul
02:00
16°
1015.5 hPa 36.8 mm 12.2°
7
1%
08:00
16°
1014.0 hPa 37.7 mm 11.4°
7
1%
14:00
21°
1015.4 hPa 37.9 mm 11.4°
9
1%
20:00
19°
1016.3 hPa 37.9 mm 11.8°
7
1%
 04:47     21:46    Daglengte: 16:59 Woensdag 13 Jul
02:00
16°
1016.1 hPa 0.2 mm 12.5°
4
47%
08:00
17°
1015.9 hPa 0.3 mm 12.4°
4
62%
14:00
20°
1015.7 hPa 0.5 mm 12.1°
4
57%
20:00
19°
1015.0 hPa 0.4 mm 13.1°
3
51%
 04:48     21:45    Daglengte: 16:57 Donderdag 14 Jul
02:00
16°
1015.1 hPa 0.4 mm 13.0°
4
54%
08:00
17°
1015.0 hPa 0.6 mm 12.6°
4
58%
14:00
20°
1015.0 hPa 0.4 mm 12.3°
3
47%
20:00
19°
1014.6 hPa 0.4 mm 13.0°
3
44%
 04:50     21:44    Daglengte: 16:54 Vrijdag 15 Jul
02:00
16°
1014.9 hPa 0.1 mm 12.4°
3
44%
08:00
17°
1014.9 hPa 0.4 mm 12.5°
2
51%
14:00
20°
1014.8 hPa 0.4 mm 12.5°
2
40%
20:00
20°
1014.1 hPa 0.4 mm 13.2°
1
42%
 04:51     21:42    Daglengte: 16:51 Zaterdag 16 Jul
02:00
17°
1014.2 hPa 0.5 mm 12.8°
1
34%
08:00
18°
1013.7 hPa 0.6 mm 13.1°
1
41%
14:00
21°
1013.0 hPa 0.8 mm 13.3°
2
43%
20:00
20°
1012.3 hPa 0.8 mm 13.6°
2
44%
 04:53     21:41    Daglengte: 16:48 Zondag 17 Jul
02:00
17°
1012.5 hPa 0.3 mm 13.0°
2
49%
08:00
17°
1012.2 hPa 0.3 mm 13.0°
1
49%
14:00
20°
1012.1 hPa 0.8 mm 12.8°
2
61%
20:00
19°
1011.7 hPa 0.8 mm 13.5°
3
51%
 04:54     21:40    Daglengte: 16:46 Maandag 18 Jul
02:00
16°
1012.4 hPa 1.2 mm 12.9°
3
48%
  CAPE Lifted Index Hail Supercell Tornado SRH 3km CL BTM PRES CL TOP PRES Swiss DWD icon SMHI TS
 04:35     21:55    Daglengte: 17:20 Vandaag
08:00 0 J/kg 1.8 K 0 % 0 % 0 % 0 m²/s² 0 0 3.18 3
09:00 4 J/kg 1.7 K 0 % 0 % 0 % 0 m²/s² 0 0 2.84 3
10:00 10 J/kg 1.7 K 0 % 0 % 0 % 0 m²/s² 0 0 2.48 2
11:00 0 J/kg 1.7 K 0 % 0 % 0 % 0 m²/s² 0 0 2.39 3
12:00 61 J/kg 0.8 K 0 % 0 % 0 % 0 m²/s² 0 0 1.64 3
13:00 146 J/kg 0.0 K 0 % 0 % 0 % 0 m²/s² 0 0 0.93 2
14:00 239 J/kg -0.6 K 0 % 0 % 0 % 0 m²/s² 0 0 0.48 2
15:00 322 J/kg -1.0 K 0 % 0 % 0 % 0 m²/s² 0 0 0.56 2
16:00 313 J/kg -1.1 K 0 % 0 % 0 % 0 m²/s² 0 0 0.7 3
17:00 265 J/kg -0.7 K 0 % 0 % 0 % 0 m²/s² 0 0 1.1 2
18:00 179 J/kg -0.5 K 0 % 0 % 0 % 0 m²/s² 0 0 0.37 2
19:00 214 J/kg -0.7 K 0 % 0 % 0 % 0 m²/s² 0 0 0.29 2
20:00 224 J/kg -0.7 K 0 % 0 % 0 % 0 m²/s² 0 0 0.29 2
21:00 249 J/kg -1.0 K 0 % 0 % 0 % 0 m²/s² 0 0 0.29 3
22:00 305 J/kg -1.7 K 0 % 0 % 0 % 0 m²/s² 0 0 -0.2 2
23:00 403 J/kg -2.2 K 0 % 0 % 0 % 0 m²/s² 0 0 -0.67 80
 04:36     21:54    Daglengte: 17:18 Morgen
00:00 562 J/kg -2.9 K 0 % 0 % 0 % 0 m²/s² 0 0 -1.52 1
01:00 529 J/kg -2.7 K 0 % 0 % 0 % 0 m²/s² 0 0 -1.65 3
02:00 0 J/kg -0.1 K 0 % 0 % 0 % 0 m²/s² 0 0 0.2 1
03:00 0 J/kg 2.8 K 0 % 0 % 0 % 0 m²/s² 0 0 3.01 95
04:00 0 J/kg 1.9 K 0 % 0 % 0 % 0 m²/s² 0 0 4.39 2
05:00 20 J/kg -2.3 K 0 % 0 % 0 % 0 m²/s² 0 0 1.36 2
06:00 289 J/kg -2.4 K 0 % 0 % 0 % 0 m²/s² 0 0 1.56 2
07:00 431 J/kg -1.9 K 0 % 0 % 0 % 0 m²/s² 0 0 2.36 2
08:00 172 J/kg -0.4 K 0 % 0 % 0 % 0 m²/s² 0 0 4.34 2
09:00 56 J/kg 1.2 K 0 % 0 % 0 % 0 m²/s² 0 0 5.4 2
10:00 18 J/kg 3.1 K 0 % 0 % 0 % 0 m²/s² 0 0 6.67 2
11:00 32 J/kg 3.3 K 0 % 0 % 0 % 0 m²/s² 0 0 6.27 2
12:00 37 J/kg 3.2 K 0 % 0 % 0 % 0 m²/s² 0 0 5.99 3
13:00 25 J/kg 3.4 K 0 % 0 % 0 % 0 m²/s² 0 0 6.7 3
14:00 106 J/kg 2.1 K 0 % 0 % 0 % 0 m²/s² 0 0 4.65 3
15:00 143 J/kg 1.6 K 0 % 0 % 0 % 0 m²/s² 0 0 4.15 2
16:00 182 J/kg 1.2 K 0 % 0 % 0 % 0 m²/s² 0 0 3.54 3
17:00 182 J/kg 1.2 K 0 % 0 % 0 % 0 m²/s² 0 0 3.69 3
18:00 247 J/kg 1.0 K 0 % 0 % 0 % 0 m²/s² 0 0 3.49 2
19:00 158 J/kg 2.1 K 0 % 0 % 0 % 0 m²/s² 0 0 4.86 2
20:00 102 J/kg 2.8 K 0 % 0 % 0 % 0 m²/s² 0 0 5.8 2
21:00 83 J/kg 3.8 K 0 % 0 % 0 % 0 m²/s² 0 0 7.07 1
22:00 50 J/kg 4.2 K 0 % 0 % 0 % 0 m²/s² 0 0 7.92 1
23:00 29 J/kg 4.8 K 0 % 0 % 0 % 0 m²/s² 0 0 8.73 2
 04:37     21:54    Daglengte: 17:17 Dinsdag 05 Jul
00:00 2 J/kg 6.0 K 0 % 0 % 0 % 0 m²/s² 0 0 10.35 1
01:00 2 J/kg 6.7 K 0 % 0 % 0 % 0 m²/s² 0 0 10.63 1
02:00 3 J/kg 7.8 K 0 % 0 % 0 % 0 m²/s² 0 0 11.37 1
03:00 5 J/kg 8.0 K 0 % 0 % 0 % 0 m²/s² 0 0 10.97 2
04:00 10 J/kg 7.9 K 0 % 0 % 0 % 0 m²/s² 0 0 11.38 1
05:00 0 J/kg 8.1 K 0 % 0 % 0 % 0 m²/s² 0 0 11.76 1
06:00 15 J/kg 7.9 K 0 % 0 % 0 % 0 m²/s² 0 0 11.35 2
07:00 46 J/kg 7.5 K 0 % 0 % 0 % 0 m²/s² 0 0 10.95 2
08:00 100 J/kg 6.6 K 0 % 0 % 0 % 0 m²/s² 0 0 10.32 2
09:00 131 J/kg 6.2 K 0 % 0 % 0 % 0 m²/s² 0 0 10.01 3
10:00 126 J/kg 6.1 K 0 % 0 % 0 % 0 m²/s² 0 0 10.21 3
11:00 106 J/kg 6.1 K 0 % 0 % 0 % 0 m²/s² 0 0 10.12 3
12:00 71 J/kg 6.1 K 0 % 0 % 0 % 0 m²/s² 0 0 10.12 1
13:00 102 J/kg 5.0 K 0 % 0 % 0 % 0 m²/s² 0 0 8.72 2
14:00 152 J/kg 3.6 K 0 % 0 % 0 % 0 m²/s² 0 0 7.32 2
15:00 143 J/kg 3.3 K 0 % 0 % 0 % 0 m²/s² 0 0 6.93 2
16:00 140 J/kg 2.9 K 0 % 0 % 0 % 0 m²/s² 0 0 6.41 1
17:00 155 J/kg 2.2 K 0 % 0 % 0 % 0 m²/s² 0 0 5.62 2
18:00 166 J/kg 1.7 K 0 % 0 % 0 % 0 m²/s² 0 0 5.51 2
19:00 79 J/kg 2.5 K 0 % 0 % 0 % 0 m²/s² 0 0 7.18 1
20:00 60 J/kg 3.2 K 0 % 0 % 0 % 0 m²/s² 0 0 8 1
21:00 120 J/kg 2.4 K 0 % 0 % 0 % 0 m²/s² 0 0 6.03 1
22:00 104 J/kg 3.5 K 0 % 0 % 0 % 0 m²/s² 0 0 5.96 1
23:00 71 J/kg 4.2 K 0 % 0 % 0 % 0 m²/s² 0 0 6.06 0
 04:38     21:53    Daglengte: 17:15 Woensdag 06 Jul
00:00 36 J/kg 5.0 K 0 % 0 % 0 % 0 m²/s² 0 0 6.95 0
01:00 36 J/kg 5.4 K 0 % 0 % 0 % 0 m²/s² 0 0 7.53 0
02:00 26 J/kg 5.9 K 0 % 0 % 0 % 0 m²/s² 0 0 8.09 1
03:00 14 J/kg 6.5 K 0 % 0 % 0 % 0 m²/s² 0 0 8.36 1
04:00 44 J/kg 5.9 K 0 % 0 % 0 % 0 m²/s² 0 0 10.01 1
05:00 55 J/kg 5.8 K 0 % 0 % 0 % 0 m²/s² 0 0 10.99 1
06:00 69 J/kg 6.3 K 0 % 0 % 0 % 0 m²/s² 0 0 11.76 2
07:00 86 J/kg 6.5 K 0 % 0 % 0 % 0 m²/s² 0 0 12.11 2
Temp Baro Wind Neerslag
  EWN Forecast EWN WRFDA DWD ICON FMI HIRLAM MET Norway GFSWXSIM
 04:35     21:55    Daglengte: 17:20 Vandaag
08:00 18.8° 1018.3 hPa 5.2 m/s 0.0 mm 18.4° 1017.1 hPa 5.3 m/s 0.0 mm 18.6° 1018.5 hPa 4.0 m/s -2.0 mm 18.9° 1018.2 hPa 6.6 m/s 0.0 mm 17.9° 1018.2 hPa 5.6 m/s 17.8° 1019.0 hPa 4.0 m/s 0.0 mm
11:00 20.9° 1017.8 hPa 5.8 m/s 0.0 mm 20.0° 1016.9 hPa 5.4 m/s 0.0 mm 20.7° 1017.8 hPa 4.4 m/s 0.0 mm 21.0° 1017.8 hPa 6.8 m/s 0.0 mm 19.0° 1017.9 hPa 5.0 m/s 21.1° 1018.0 hPa 5.0 m/s 0.0 mm
14:00 23.5° 1016.9 hPa 6.9 m/s 0.0 mm 23.8° 1015.7 hPa 7.6 m/s 0.0 mm 23.9° 1016.7 hPa 5.5 m/s 0.0 mm 22.7° 1017.3 hPa 7.7 m/s 0.0 mm 19.8° 1017.0 hPa 4.5 m/s 24.9° 1017.0 hPa 5.0 m/s 0.0 mm
17:00 23.0° 1015.7 hPa 7.0 m/s 0.0 mm 23.7° 1014.5 hPa 6.6 m/s 0.0 mm 22.9° 1015.9 hPa 4.5 m/s 0.0 mm 22.4° 1016.0 hPa 7.4 m/s 0.0 mm 22.1° 1015.6 hPa 5.3 m/s 25.0° 1016.0 hPa 4.0 m/s 0.3 mm
20:00 20.8° 1015.3 hPa 2.7 m/s 0.0 mm 21.0° 1014.1 hPa 3.7 m/s 1.1 mm 21.1° 1014.9 hPa 1.6 m/s 0.0 mm 21.0° 1015.8 hPa 2.4 m/s 0.0 mm 20.5° 1015.1 hPa 3.8 m/s 21.7° 1015.0 hPa 3.0 m/s 0.5 mm
23:00 18.1° 1015.3 hPa 1.5 m/s 0.0 mm 18.7° 1013.9 hPa 1.3 m/s 2.4 mm 18.1° 1014.9 hPa 0.8 m/s 0.2 mm 18.3° 1015.8 hPa 1.4 m/s 0.0 mm 17.7° 1014.9 hPa 1.3 m/s 17.4° 1015.0 hPa 2.0 m/s 1.2 mm
 04:36     21:54    Daglengte: 17:18 Morgen
02:00 16.1° 1014.7 hPa 2.0 m/s 0.0 mm 17.0° 1013.5 hPa 7.3 m/s 2.9 mm 16.1° 1014.4 hPa 1.1 m/s 0.0 mm 15.6° 1015.5 hPa 1.4 m/s 0.0 mm 15.6° 1014.4 hPa 3.1 m/s 16.5° 1014.0 hPa 2.0 m/s 0.5 mm
05:00 15.1° 1014.5 hPa 3.1 m/s 0.0 mm 14.8° 1012.8 hPa 3.6 m/s 11.3 mm 14.8° 1014.7 hPa 2.2 m/s 2.8 mm 16.3° 1014.9 hPa 3.1 m/s 0.0 mm 14.6° 1014.2 hPa 3.9 m/s 15.7° 1014.0 hPa 4.0 m/s 0.3 mm
08:00 16.8° 1015.1 hPa 4.0 m/s 0.0 mm 17.3° 1013.5 hPa 4.9 m/s 12.3 mm 16.8° 1015.2 hPa 2.9 m/s 0.0 mm 17.4° 1015.6 hPa 5.4 m/s 0.0 mm 16.7° 1014.8 hPa 4.3 m/s 18.3° 1014.0 hPa 4.0 m/s 0.2 mm
11:00 19.0° 1015.5 hPa 4.3 m/s 0.0 mm 19.6° 1013.9 hPa 4.7 m/s 12.3 mm 18.8° 1015.7 hPa 3.2 m/s 0.0 mm 20.2° 1015.9 hPa 5.2 m/s 0.0 mm 19.6° 1014.7 hPa 4.2 m/s 21.9° 1015.0 hPa 5.0 m/s 0.0 mm
14:00 21.0° 1014.8 hPa 4.6 m/s 0.0 mm 20.7° 1013.6 hPa 5.1 m/s 12.3 mm 21.1° 1014.8 hPa 4.1 m/s 0.0 mm 20.3° 1015.9 hPa 5.9 m/s 0.0 mm 21.2° 1014.3 hPa 5.4 m/s 22.7° 1014.0 hPa 5.0 m/s 0.0 mm
17:00 20.6° 1014.4 hPa 6.0 m/s 0.0 mm 19.4° 1013.4 hPa 5.3 m/s 13.8 mm 20.9° 1014.4 hPa 4.7 m/s 0.1 mm 19.9° 1015.2 hPa 6.5 m/s 0.0 mm 19.5° 1014.4 hPa 7.2 m/s 21.5° 1014.0 hPa 7.0 m/s 0.3 mm
20:00 19.2° 1014.4 hPa 4.9 m/s 0.0 mm 20.0° 1013.3 hPa 6.2 m/s 15.9 mm 18.9° 1014.5 hPa 3.8 m/s 0.0 mm 19.1° 1015.0 hPa 5.8 m/s 0.0 mm 18.2° 1014.7 hPa 6.8 m/s 19.3° 1015.0 hPa 7.0 m/s 0.5 mm
23:00 16.8° 1015.1 hPa 4.0 m/s 0.0 mm 17.2° 1014.1 hPa 4.4 m/s 16.2 mm 15.2° 1015.1 hPa 2.4 m/s 0.0 mm 17.7° 1015.5 hPa 5.3 m/s 0.0 mm 15.1° 1015.6 hPa 5.8 m/s 15.9° 1015.0 hPa 6.0 m/s 0.3 mm
 04:37     21:54    Daglengte: 17:17 Dinsdag 05 Jul
02:00 15.2° 1015.4 hPa 5.1 m/s 0.0 mm 14.6° 1014.4 hPa 5.7 m/s 16.2 mm 12.9° 1015.7 hPa 2.5 m/s 0.0 mm 15.8° 1015.4 hPa 6.4 m/s 0.0 mm 13.7° 1015.7 hPa 5.9 m/s 14.8° 1015.0 hPa 6.0 m/s 0.0 mm
05:00 13.0° 1015.5 hPa 3.9 m/s 0.0 mm 13.0° 1014.6 hPa 4.4 m/s 16.2 mm 11.9° 1015.9 hPa 2.6 m/s 0.0 mm 13.2° 1015.8 hPa 6.1 m/s 13.7° 1015.0 hPa 6.0 m/s 0.0 mm
08:00 15.7° 1015.8 hPa 5.4 m/s 0.0 mm 16.0° 1015.0 hPa 6.0 m/s 16.2 mm 14.9° 1016.2 hPa 4.1 m/s 0.0 mm 15.9° 1015.8 hPa 7.8 m/s 15.9° 1016.0 hPa 8.0 m/s 0.0 mm
11:00 18.2° 1016.0 hPa 5.3 m/s 0.0 mm 18.8° 1015.5 hPa 5.3 m/s 16.3 mm 17.5° 1016.2 hPa 4.4 m/s 0.0 mm 18.2° 1016.5 hPa 7.5 m/s 19.1° 1016.0 hPa 8.0 m/s 0.0 mm
14:00 19.5° 1016.0 hPa 5.7 m/s 0.0 mm 19.6° 1015.2 hPa 5.6 m/s 16.3 mm 19.4° 1016.3 hPa 5.4 m/s 0.0 mm 20.0° 1016.1 hPa 7.1 m/s 19.8° 1016.0 hPa 8.0 m/s 0.2 mm
17:00 19.3° 1016.0 hPa 5.6 m/s 0.0 mm 19.0° 1015.1 hPa 5.3 m/s 16.4 mm 19.4° 1016.2 hPa 5.3 m/s 0.0 mm 16.8° 1016.6 hPa 6.3 m/s 18.5° 1016.0 hPa 7.0 m/s 0.3 mm
20:00 18.2° 1016.0 hPa 5.9 m/s 0.0 mm 18.8° 1014.5 hPa 6.6 m/s 16.6 mm 17.5° 1016.2 hPa 4.5 m/s 0.0 mm 16.6° 1016.2 hPa 6.3 m/s 16.5° 1016.0 hPa 6.0 m/s 0.7 mm
23:00 15.1° 1016.5 hPa 4.4 m/s 0.0 mm 15.2° 1015.5 hPa 5.1 m/s 16.6 mm 14.0° 1016.6 hPa 2.8 m/s 0.0 mm 14.2° 1016.8 hPa 5.6 m/s 13.1° 1016.0 hPa 6.0 m/s 0.0 mm
 04:38     21:53    Daglengte: 17:15 Woensdag 06 Jul
02:00 12.1° 1016.5 hPa 3.4 m/s 0.0 mm 13.2° 1015.3 hPa 5.7 m/s 16.6 mm 11.9° 1016.8 hPa 2.9 m/s 0.0 mm 13.2° 1016.6 hPa 5.3 m/s 11.2° 1016.0 hPa 5.0 m/s 0.0 mm
05:00 11.4° 1016.5 hPa 3.3 m/s 0.0 mm 12.3° 1015.8 hPa 4.8 m/s 16.6 mm 11.1° 1016.7 hPa 2.9 m/s 0.0 mm 13.0° 1016.3 hPa 5.8 m/s 10.3° 1016.0 hPa 6.0 m/s 0.0 mm
08:00 14.2° 1016.7 hPa 4.6 m/s 0.0 mm 14.5° 1016.2 hPa 6.2 m/s 16.7 mm 14.2° 1016.9 hPa 4.2 m/s 0.0 mm 14.6° 1016.6 hPa 7.7 m/s 12.0° 1016.0 hPa 8.0 m/s 0.3 mm
11:00 16.0° 1017.1 hPa 9.6 m/s 3.8 mm 15.9° 1017.3 hPa 9.5 m/s 7.5 mm 16.2° 1017.0 hPa 10.0 m/s 0.2 mm
14:00 16.9° 1017.1 hPa 8.8 m/s 3.9 mm 16.7° 1017.3 hPa 8.7 m/s 7.6 mm 17.4° 1017.0 hPa 9.0 m/s 0.3 mm
17:00 18.7° 1017.1 hPa 9.2 m/s 7.6 mm 18.7° 1017.2 hPa 9.6 m/s 7.6 mm 19.0° 1017.0 hPa 9.0 m/s 0.0 mm
20:00 17.3° 1017.0 hPa 9.0 m/s 7.6 mm 17.1° 1017.1 hPa 9.0 m/s 7.6 mm 18.1° 1017.0 hPa 9.0 m/s 0.0 mm
23:00 14.8° 1017.0 hPa 8.4 m/s 7.8 mm 15.2° 1017.1 hPa 8.2 m/s 7.8 mm 14.7° 1017.0 hPa 9.0 m/s 0.0 mm
 04:39     21:52    Daglengte: 17:13 Donderdag 07 Jul
02:00 13.6° 1015.9 hPa 6.3 m/s 4.2 mm 14.1° 1015.8 hPa 6.1 m/s 8.0 mm 13.4° 1016.0 hPa 7.0 m/s 0.3 mm
05:00 12.7° 1014.9 hPa 7.2 m/s 4.2 mm 14.9° 1014.9 hPa 7.8 m/s 8.3 mm 11.9° 1015.0 hPa 7.0 m/s 0.2 mm
08:00 14.0° 1015.0 hPa 8.0 m/s 8.4 mm 15.8° 1015.1 hPa 8.1 m/s 8.4 mm 13.4° 1015.0 hPa 8.0 m/s 0.0 mm
11:00 17.8° 1014.9 hPa 9.0 m/s 8.4 mm 17.8° 1014.9 hPa 9.0 m/s 8.4 mm 17.8° 1015.0 hPa 9.0 m/s 0.0 mm
14:00 19.2° 1014.3 hPa 8.0 m/s 8.4 mm 19.2° 1015.1 hPa 8.0 m/s 8.4 mm 19.2° 1014.0 hPa 8.0 m/s 0.0 mm
17:00 19.8° 1015.2 hPa 6.9 m/s 8.4 mm 19.5° 1015.7 hPa 6.9 m/s 8.4 mm 20.9° 1015.0 hPa 7.0 m/s 0.0 mm
20:00 18.7° 1015.9 hPa 4.8 m/s 8.4 mm 18.3° 1015.9 hPa 4.7 m/s 8.4 mm 19.8° 1016.0 hPa 5.0 m/s 0.0 mm
23:00 15.5° 1016.1 hPa 6.2 m/s 8.6 mm 16.1° 1016.5 hPa 6.7 m/s 8.6 mm 15.3° 1016.0 hPa 6.0 m/s 0.0 mm
 04:40     21:51    Daglengte: 17:11 Vrijdag 08 Jul
02:00 13.3° 1016.1 hPa 6.5 m/s 8.6 mm 14.8° 1016.5 hPa 6.4 m/s 8.6 mm 12.8° 1016.0 hPa 7.0 m/s 0.0 mm
05:00 13.9° 1015.9 hPa 8.0 m/s 8.6 mm 16.5° 1015.8 hPa 8.0 m/s 8.6 mm 13.0° 1016.0 hPa 8.0 m/s 0.0 mm
08:00 14.6° 1014.9 hPa 7.2 m/s 4.6 mm 16.3° 1014.8 hPa 6.9 m/s 8.9 mm 14.0° 1015.0 hPa 8.0 m/s 0.3 mm
11:00 15.7° 1014.0 hPa 7.6 m/s 4.9 mm 16.7° 1014.0 hPa 7.4 m/s 9.6 mm 15.4° 1014.0 hPa 8.0 m/s 0.2 mm
14:00 19.9° 1012.0 hPa 7.1 m/s 5.2 mm 20.9° 1011.9 hPa 7.6 m/s 9.9 mm 19.5° 1012.0 hPa 7.0 m/s 0.5 mm
17:00 18.4° 1011.0 hPa 7.1 m/s 5.5 mm 17.8° 1011.0 hPa 7.2 m/s 10.6 mm 20.2° 1011.0 hPa 7.0 m/s 0.5 mm
20:00 17.8° 1010.3 hPa 6.0 m/s 5.8 mm 17.5° 1010.1 hPa 6.2 m/s 11.0 mm 18.7° 1011.0 hPa 6.0 m/s 0.5 mm
23:00 15.5° 1009.8 hPa 7.1 m/s 5.8 mm 15.8° 1009.7 hPa 7.5 m/s 11.3 mm 15.4° 1010.0 hPa 7.0 m/s 0.3 mm
 04:41     21:50    Daglengte: 17:09 Zaterdag 09 Jul
02:00 14.5° 1009.0 hPa 7.6 m/s 5.8 mm 15.3° 1009.1 hPa 7.4 m/s 11.4 mm 14.3° 1009.0 hPa 8.0 m/s 0.2 mm
05:00 14.2° 1008.1 hPa 5.7 m/s 6.2 mm 14.6° 1008.4 hPa 5.6 m/s 11.9 mm 14.0° 1008.0 hPa 6.0 m/s 0.6 mm
08:00 16.4° 1009.5 hPa 5.4 m/s 12.9 mm 16.4° 1009.5 hPa 5.4 m/s 12.9 mm
11:00 18.9° 1011.9 hPa 7.1 m/s 14.2 mm 18.9° 1011.9 hPa 7.1 m/s 14.2 mm
14:00 21.2° 1014.0 hPa 6.0 m/s 14.3 mm 21.2° 1014.0 hPa 6.0 m/s 14.3 mm
17:00 20.6° 1015.9 hPa 7.5 m/s 14.4 mm 20.6° 1015.9 hPa 7.5 m/s 14.4 mm
20:00 18.8° 1017.5 hPa 6.3 m/s 14.4 mm 18.8° 1017.5 hPa 6.3 m/s 14.4 mm
23:00 16.4° 1018.5 hPa 4.8 m/s 14.4 mm 16.4° 1018.5 hPa 4.8 m/s 14.5 mm
 04:43     21:49    Daglengte: 17:06 Zondag 10 Jul
02:00 15.5° 1018.9 hPa 3.5 m/s 14.5 mm 15.5° 1018.9 hPa 3.5 m/s 14.5 mm
05:00 14.6° 1019.6 hPa 2.7 m/s 14.5 mm 14.6° 1019.6 hPa 2.7 m/s 14.5 mm
08:00 17.1° 1019.8 hPa 4.5 m/s 14.6 mm 17.1° 1019.8 hPa 4.5 m/s 14.6 mm
14:00 18.0° 1019.8 hPa 5.3 m/s 14.7 mm 18.0° 1019.8 hPa 5.3 m/s 14.7 mm
20:00 18.0° 1018.0 hPa 5.0 m/s 15.2 mm 18.0° 1018.0 hPa 5.0 m/s 15.2 mm
 04:44     21:48    Daglengte: 17:04 Maandag 11 Jul
02:00 14.9° 1017.1 hPa 5.0 m/s 17.0 mm 14.9° 1017.1 hPa 5.0 m/s 17.0 mm
08:00 15.2° 1016.5 hPa 5.2 m/s 18.0 mm 15.2° 1016.5 hPa 5.2 m/s 18.0 mm
14:00 20.0° 1016.8 hPa 5.3 m/s 18.3 mm 20.0° 1016.8 hPa 5.3 m/s 18.3 mm
20:00 18.9° 1016.5 hPa 7.2 m/s 18.4 mm 18.9° 1016.5 hPa 7.2 m/s 18.4 mm
 04:45     21:47    Daglengte: 17:02 Dinsdag 12 Jul
02:00 16.2° 1015.5 hPa 6.8 m/s 18.4 mm 16.2° 1015.5 hPa 6.8 m/s 18.4 mm
08:00 16.0° 1014.0 hPa 7.5 m/s 18.9 mm 16.0° 1014.0 hPa 7.5 m/s 18.9 mm
14:00 21.3° 1015.4 hPa 8.6 m/s 18.9 mm 21.3° 1015.4 hPa 8.6 m/s 18.9 mm
20:00 19.1° 1016.3 hPa 7.5 m/s 18.9 mm 19.1° 1016.3 hPa 7.5 m/s 18.9 mm
 04:47     21:46    Daglengte: 16:59 Woensdag 13 Jul
02:00 16.3° 1016.1 hPa 4.5 m/s 0.2 mm
08:00 16.8° 1015.9 hPa 4.2 m/s 0.3 mm
14:00 19.7° 1015.7 hPa 3.9 m/s 0.5 mm
20:00 19.2° 1015.0 hPa 3.3 m/s 0.4 mm
 04:48     21:45    Daglengte: 16:57 Donderdag 14 Jul
02:00 16.4° 1015.1 hPa 3.8 m/s 0.4 mm
08:00 17.2° 1015.0 hPa 3.6 m/s 0.6 mm
14:00 20.2° 1015.0 hPa 3.1 m/s 0.4 mm
20:00 19.5° 1014.6 hPa 2.9 m/s 0.4 mm
 04:50     21:44    Daglengte: 16:54 Vrijdag 15 Jul
02:00 16.4° 1014.9 hPa 2.7 m/s 0.1 mm
08:00 17.3° 1014.9 hPa 2.0 m/s 0.4 mm
14:00 20.2° 1014.8 hPa 2.2 m/s 0.4 mm
20:00 19.9° 1014.1 hPa 1.4 m/s 0.4 mm
 04:51     21:42    Daglengte: 16:51 Zaterdag 16 Jul
02:00 16.8° 1014.2 hPa 1.5 m/s 0.5 mm
08:00 17.7° 1013.7 hPa 0.8 m/s 0.6 mm
14:00 20.7° 1013.0 hPa 1.9 m/s 0.8 mm
20:00 20.0° 1012.3 hPa 1.7 m/s 0.8 mm
 04:53     21:41    Daglengte: 16:48 Zondag 17 Jul
02:00 16.8° 1012.5 hPa 1.5 m/s 0.3 mm
08:00 17.2° 1012.2 hPa 1.2 m/s 0.3 mm
14:00 19.9° 1012.1 hPa 2.2 m/s 0.8 mm
20:00 19.2° 1011.7 hPa 3.0 m/s 0.8 mm
 04:54     21:40    Daglengte: 16:46 Maandag 18 Jul
02:00 16.3° 1012.4 hPa 3.1 m/s 1.2 mm
FMI Hirlam - 7.5 km EWN WRFDA - 12 km DWD ICON - 7 km GFS - 25 km Basiskaart






























































Updatetijd (Europe/Brussels) Resolutie Lengte Stap
FMI Hirlam 07:00, 13:00, 19:00, 01:00 7.5 km 49h 1h
EWN WRFDA 04:15, 10:15, 16:15, 22:15 12 km 73h 1h
DWD ICON 05:45, 11:45, 17:45, 23:45 7 km 75h 1h
GFS 02:15, 08:15, 14:15, 20:15 25 km 237h 3h
30+ mm
25-30 mm
20-25 mm
15-20 mm
10-15 mm
6-10 mm
4-6 mm
2-4 mm
1-2 mm
0.5-1 mm
0.2-0.5 mm
0.1-0.2 mm
30+ mm
25-30 mm
20-25 mm
15-20 mm
10-15 mm
6-10 mm
4-6 mm
2-4 mm
1-2 mm
0.5-1 mm
0.2-0.5 mm
0.1-0.2 mm
Sneeuwval
Natte sneeuw
Hagel
Vorst
30+ mm
25-30 mm
20-25 mm
15-20 mm
10-15 mm
6-10 mm
4-6 mm
2-4 mm
1-2 mm
0.5-1 mm
0.2-0.5 mm
0.1-0.2 mm
Sneeuwval
Natte sneeuw
Hagel
Vorst
Onweer
50 mm
40 mm
30 mm
26 mm
22 mm
18 mm
14 mm
10 mm
9 mm
8 mm
7 mm
6 mm
5 mm
4.5 mm
4 mm
3.5 mm
3 mm
2.5 mm
2 mm
1.5 mm
1 mm
0.8 mm
0.6 mm
0.4 mm
0.2 mm
0.05 mm
35°
30°
25°
20°
15°
10°
-5°
-10°
-15°
-20°
-25°
-30°
-35°
33> m/s
29 m/s
25 m/s
21 m/s
17 m/s
14 m/s
11 m/s
8 m/s
5 m/s
3 m/s
0 m/s
2600 J/kg
2400 J/kg
2200 J/kg
2000 J/kg
1800 J/kg
1600 J/kg
1400 J/kg
1200 J/kg
1000 J/kg
800 J/kg
600 J/kg
400 J/kg
200 J/kg
70 dBZ
65 dBZ
60 dBZ
55 dBZ
50 dBZ
45 dBZ
40 dBZ
35 dBZ
30 dBZ
25 dBZ
20 dBZ
15 dBZ
10 dBZ
5 dBZ
-1 K
-2 K
-3 K
-4 K
-5 K
-6 K
-7 K
-8 K
-9 K
950 m²/s²
900 m²/s²
850 m²/s²
800 m²/s²
750 m²/s²
700 m²/s²
650 m²/s²
600 m²/s²
550 m²/s²
500 m²/s²
450 m²/s²
400 m²/s²
350 m²/s²
300 m²/s²
250 m²/s²
200 m²/s²
150 m²/s²
100 m²/s²
46 m/s
44 m/s
42 m/s
40 m/s
38 m/s
36 m/s
34 m/s
32 m/s
30 m/s
28 m/s
26 m/s
24 m/s
22 m/s
20 m/s
16 m/s
12 m/s
8 m/s
4 m/s
30 m/s
28 m/s
26 m/s
24 m/s
22 m/s
20 m/s
18 m/s
16 m/s
14 m/s
12 m/s
10 m/s
8 m/s
6 m/s
4 m/s
2 m/s
3.0
2.8
2.6
2.4
2.2
2.0
1.8
1.6
1.4
1.2
1.0
0.8
0.6
0.4
0.2
15
14
13
12
11
10
9
8
7
6
5
4
3
2
1
90%
80%
70%
60%
50%
40%
30%
20%
10%
42
40
38
36
34
32
30
28
26
24
22
20
18
16
14
12
90+ cm
80-90 cm
70-80 cm
60-70 cm
50-60 cm
40-50 cm
30-40 cm
20-30 cm
10-20 cm
1-10 cm
Sneeuwval
Natte sneeuw
Regen